Beaver Falls, PA

12:04 AM EST on November 20, 2019 (GMT -0500)
Beaver County

Weather History for KBVI - September, 2019

Change the Weather History Date:

Friday, September 20, 2019

  Actual Average Record
Temperature  
Mean Temperature 68 °F -  
Max Temperature 83 °F 69 °F 86 °F (2002)
Min Temperature 54 °F 52 °F 42 °F (2012)
Cooling Degree Days 4    
Growing Degree Days 18 (Base 50)    
Moisture  
Dew Point 54 °F    
Average Humidity 61    
Maximum Humidity 85    
Minimum Humidity 38    
Precipitation  
Precipitation 0.00 in - - ()
Sea Level Pressure  
Sea Level Pressure 30.22 in    
Wind  
Wind Speed 3 mph (SSE)    
Max Wind Speed 8 mph    
Max Gust Speed -    
Visibility 10 miles    
Events      
Averages and records for this station are not official NWS values.
T = Trace of Precipitation, MM = Missing Value Source: NWS Daily Summary

Daily Weather History Graph

Daily Weather History Graph

Search for Another Location

Airport or City:

Astronomy

Sep. 20, 2019 Rise Set
Actual Time 7:06 AM EDT 7:22 PM EDT
Civil Twilight 6:39 AM EDT 7:49 PM EDT
Nautical Twilight 6:07 AM EDT 8:21 PM EDT
Astronomical Twilight 5:34 AM EDT 8:54 PM EDT
Moon 11:08 PM EDT 1:12 PM EDT
Length of Visible Light 13h 10m
Length of Day
12h 15m
Waning Gibbous, 65% of the Moon is Illuminated
Sep 20
Waning Gibbous
Sep 21
Last Quarter
Sep 28
New
Oct 5
First Quarter
Oct 13
Full

Hourly Weather History & Observations

Time (EDT) Temp. Heat Index Dew Point Humidity Pressure Visibility Wind Dir Wind Speed Gust Speed Precip Events Conditions
12:15 AM 60.1 °F - 49.6 °F 68% 30.21 in 10.0 mi ESE 3.5 mph - N/A   Clear
12:16 AM 60.1 °F - 49.5 °F 68% 30.21 in 10.0 mi Calm Calm - N/A   Clear
12:35 AM 59.5 °F - 49.5 °F 69% 30.21 in 10.0 mi ESE 3.5 mph - N/A   Clear
12:55 AM 59.2 °F - 49.5 °F 70% 30.21 in 10.0 mi ESE 3.5 mph - N/A   Clear
1:15 AM 59.0 °F - 49.3 °F 70% 30.22 in 10.0 mi ESE 3.5 mph - N/A   Clear
1:16 AM 58.8 °F - 49.3 °F 71% 30.22 in 10.0 mi ESE 3.5 mph - N/A   Clear
1:35 AM 58.5 °F - 49.1 °F 71% 30.22 in 10.0 mi Calm Calm - N/A   Clear
1:55 AM 58.1 °F - 49.1 °F 72% 30.22 in 10.0 mi SE 3.5 mph - N/A   Clear
2:15 AM 57.6 °F - 49.1 °F 73% 30.22 in 10.0 mi SE 3.5 mph - N/A   Clear
2:16 AM 57.6 °F - 49.1 °F 73% 30.22 in 10.0 mi SE 4.6 mph - N/A   Clear
2:35 AM 56.8 °F - 48.7 °F 74% 30.21 in 10.0 mi SE 4.6 mph - N/A   Clear
2:55 AM 56.8 °F - 48.7 °F 74% 30.21 in 10.0 mi SE 3.5 mph - N/A   Clear
3:15 AM 56.5 °F - 49.1 °F 76% 30.21 in 10.0 mi SSE 3.5 mph - N/A   Clear
3:16 AM 56.5 °F - 49.1 °F 76% 30.21 in 10.0 mi SSE 3.5 mph - N/A   Clear
3:35 AM 56.3 °F - 49.1 °F 77% 30.22 in 10.0 mi SE 4.6 mph - N/A   Clear
3:36 AM 56.1 °F - 49.1 °F 77% 30.22 in 10.0 mi SE 4.6 mph - N/A   Clear
3:55 AM 55.6 °F - 48.9 °F 78% 30.21 in 10.0 mi SE 4.6 mph - N/A   Clear
4:15 AM 55.4 °F - 49.1 °F 79% 30.22 in 10.0 mi SE 4.6 mph - N/A   Clear
4:35 AM 55.4 °F - 49.3 °F 80% 30.22 in 10.0 mi SSE 4.6 mph - N/A   Clear
4:55 AM 55.0 °F - 50.0 °F 83% 30.23 in 10.0 mi SSE 5.8 mph - N/A   Clear
5:15 AM 55.2 °F - 49.8 °F 82% 30.23 in 10.0 mi SSE 4.6 mph - N/A   Clear
5:35 AM 55.0 °F - 49.6 °F 82% 30.23 in 10.0 mi SE 3.5 mph - N/A   Clear
5:55 AM 54.5 °F - 49.6 °F 84% 30.24 in 10.0 mi SE 3.5 mph - N/A   Clear
5:56 AM 54.5 °F - 49.6 °F 84% 30.24 in 10.0 mi SE 3.5 mph - N/A   Clear
6:15 AM 54.1 °F - 49.6 °F 85% 30.24 in 10.0 mi SE 3.5 mph - N/A   Clear
6:35 AM 54.3 °F - 49.6 °F 84% 30.24 in 10.0 mi ESE 4.6 mph - N/A   Clear
6:36 AM 54.3 °F - 49.6 °F 84% 30.24 in 10.0 mi SE 4.6 mph - N/A   Clear
6:47 AM 55.4 °F - 50.0 °F 82% 30.24 in 10.0 mi SE 4.6 mph - N/A   Clear
6:55 AM 54.9 °F - 49.8 °F 83% 30.24 in 10.0 mi SE 4.6 mph - N/A   Scattered Clouds
7:15 AM 54.0 °F - 49.5 °F 85% 30.25 in 10.0 mi SSE 4.6 mph - N/A   Clear
7:35 AM 54.7 °F - 50.0 °F 84% 30.25 in 10.0 mi SE 3.5 mph - N/A   Clear
7:36 AM 54.7 °F - 50.0 °F 84% 30.25 in 10.0 mi SE 3.5 mph - N/A   Clear
7:47 AM 55.4 °F - 50.0 °F 82% 30.25 in 10.0 mi SSE 4.6 mph - N/A   Clear
7:55 AM 55.9 °F - 50.4 °F 82% 30.26 in 10.0 mi SE 3.5 mph - N/A   Clear
8:15 AM 57.4 °F - 50.9 °F 79% 30.26 in 10.0 mi SSE 4.6 mph - N/A   Clear
8:35 AM 59.0 °F - 51.3 °F 75% 30.26 in 10.0 mi SSE 4.6 mph - N/A   Clear
8:36 AM 59.0 °F - 51.3 °F 75% 30.26 in 10.0 mi SSE 4.6 mph - N/A   Clear
8:47 AM 59.0 °F - 51.8 °F 77% 30.26 in 10.0 mi SSE 4.6 mph - N/A   Clear
8:55 AM 60.1 °F - 51.8 °F 74% 30.26 in 10.0 mi SE 4.6 mph - N/A   Clear
9:15 AM 61.7 °F - 51.8 °F 70% 30.27 in 10.0 mi SSE 5.8 mph - N/A   Clear
9:35 AM 63.9 °F - 52.5 °F 67% 30.27 in 10.0 mi South 4.6 mph - N/A   Clear
9:36 AM 64.0 °F - 52.9 °F 67% 30.27 in 10.0 mi SSE 4.6 mph - N/A   Clear
9:47 AM 66.2 °F - 53.6 °F 64% 30.27 in 10.0 mi SSE 4.6 mph - N/A   Clear
9:55 AM 65.5 °F - 53.1 °F 64% 30.27 in 10.0 mi SE 5.8 mph - N/A   Clear
10:15 AM 68.0 °F - 53.8 °F 60% 30.27 in 10.0 mi South 4.6 mph - N/A   Clear
10:35 AM 70.0 °F - 53.6 °F 56% 30.26 in 10.0 mi South 4.6 mph - N/A   Clear
10:36 AM 70.0 °F - 53.8 °F 56% 30.26 in 10.0 mi SSW 4.6 mph - N/A   Clear
10:47 AM 71.6 °F - 53.6 °F 53% 30.26 in 10.0 mi South 4.6 mph - N/A   Clear
10:55 AM 72.3 °F - 55.0 °F 54% 30.26 in 10.0 mi Calm Calm - N/A   Clear
11:15 AM 72.3 °F - 54.7 °F 54% 30.25 in 10.0 mi SE 4.6 mph - N/A   Clear
11:35 AM 73.0 °F - 55.6 °F 54% 30.25 in 10.0 mi SE 3.5 mph - N/A   Clear
11:36 AM 73.2 °F - 55.6 °F 54% 30.25 in 10.0 mi ESE 3.5 mph - N/A   Clear
11:47 AM 75.2 °F - 55.4 °F 50% 30.25 in 10.0 mi Calm Calm - N/A   Clear
11:55 AM 76.1 °F - 56.5 °F 50% 30.24 in 10.0 mi SSE 3.5 mph - N/A   Clear
12:15 PM 75.9 °F - 55.9 °F 50% 30.24 in 10.0 mi Calm Calm - N/A   Clear
12:16 PM 75.6 °F - 55.9 °F 50% 30.24 in 10.0 mi Calm Calm - N/A   Clear
12:35 PM 78.3 °F - 56.8 °F 48% 30.23 in 10.0 mi South 4.6 mph - N/A   Clear
12:36 PM 78.1 °F - 57.0 °F 48% 30.23 in 10.0 mi SSW 4.6 mph - N/A   Clear
12:47 PM 78.8 °F - 57.2 °F 47% 30.23 in 10.0 mi SE 8.1 mph - N/A   Clear
12:55 PM 77.9 °F - 56.7 °F 48% 30.23 in 10.0 mi South 6.9 mph - N/A   Clear
1:15 PM 79.9 °F - 57.0 °F 45% 30.23 in 10.0 mi SW 4.6 mph - N/A   Clear
1:35 PM 79.2 °F - 55.9 °F 45% 30.22 in 10.0 mi SE 6.9 mph - N/A   Clear
1:47 PM 80.6 °F 80.5 °F 55.4 °F 42% 30.22 in 10.0 mi SE 5.8 mph - N/A   Clear
1:55 PM 79.9 °F - 54.7 °F 42% 30.22 in 10.0 mi South 4.6 mph - N/A   Clear
2:15 PM 82.4 °F 81.8 °F 56.1 °F 40% 30.21 in 10.0 mi SW 3.5 mph - N/A   Clear
2:35 PM 82.6 °F 81.7 °F 54.5 °F 38% 30.20 in 10.0 mi South 5.8 mph - N/A   Clear
2:47 PM 82.4 °F 81.7 °F 55.4 °F 39% 30.20 in 10.0 mi ESE 6.9 mph - N/A   Clear
2:55 PM 82.6 °F 81.8 °F 55.2 °F 39% 30.20 in 10.0 mi Calm Calm - N/A   Clear
3:15 PM 81.7 °F 81.2 °F 55.0 °F 40% 30.19 in 10.0 mi Calm Calm - N/A   Clear
3:35 PM 82.6 °F 81.8 °F 55.2 °F 39% 30.19 in 10.0 mi SSE 4.6 mph - N/A   Clear
3:47 PM 82.4 °F 81.7 °F 55.4 °F 39% 30.19 in 10.0 mi Calm Calm - N/A   Clear
3:55 PM 83.3 °F 82.5 °F 55.8 °F 39% 30.18 in 10.0 mi SSW 3.5 mph - N/A   Scattered Clouds
3:56 PM 83.5 °F 82.6 °F 55.8 °F 39% 30.18 in 10.0 mi WSW 3.5 mph - N/A   Scattered Clouds
4:15 PM 81.3 °F 81.0 °F 55.6 °F 41% 30.18 in 10.0 mi SSW 4.6 mph - N/A   Scattered Clouds
4:35 PM 83.3 °F 82.5 °F 55.6 °F 39% 30.18 in 10.0 mi NNW 3.5 mph - N/A   Scattered Clouds
4:47 PM 82.4 °F 81.7 °F 55.4 °F 39% 30.18 in 10.0 mi Calm Calm - N/A   Scattered Clouds
4:55 PM 83.1 °F 82.4 °F 56.1 °F 40% 30.19 in 10.0 mi WSW 5.8 mph - N/A   Scattered Clouds
5:15 PM 82.0 °F 81.6 °F 55.9 °F 41% 30.18 in 10.0 mi Calm Calm - N/A   Scattered Clouds
5:35 PM 80.6 °F 80.6 °F 55.9 °F 43% 30.18 in 10.0 mi SSE 3.5 mph - N/A   Clear
5:55 PM 80.6 °F 80.7 °F 56.8 °F 44% 30.18 in 10.0 mi South 3.5 mph - N/A   Clear
5:56 PM 80.6 °F 80.7 °F 57.0 °F 44% 30.18 in 10.0 mi South 3.5 mph - N/A   Clear
6:15 PM 79.9 °F - 56.7 °F 45% 30.19 in 10.0 mi Calm Calm - N/A   Clear
6:35 PM 78.4 °F - 57.4 °F 48% 30.19 in 10.0 mi Calm Calm - N/A   Clear
6:36 PM 78.4 °F - 57.2 °F 48% 30.19 in 10.0 mi Calm Calm - N/A   Clear
6:55 PM 77.9 °F - 56.3 °F 47% 30.19 in 10.0 mi Calm Calm - N/A   Clear
6:56 PM 77.9 °F - 56.3 °F 47% 30.19 in 10.0 mi Calm Calm - N/A   Clear
7:15 PM 75.7 °F - 58.3 °F 55% 30.19 in 10.0 mi SSE 3.5 mph - N/A   Clear
7:35 PM 75.0 °F - 58.1 °F 56% 30.19 in 10.0 mi Calm Calm - N/A   Clear
7:55 PM 73.9 °F - 59.0 °F 59% 30.19 in 10.0 mi Calm Calm - N/A   Clear
7:56 PM 73.8 °F - 59.0 °F 60% 30.19 in 10.0 mi Calm Calm - N/A   Clear
8:15 PM 73.8 °F - 58.1 °F 58% 30.19 in 10.0 mi Calm Calm - N/A   Clear
8:16 PM 73.8 °F - 58.1 °F 58% 30.19 in 10.0 mi Calm Calm - N/A   Clear
8:35 PM 73.2 °F - 58.3 °F 59% 30.20 in 10.0 mi Calm Calm - N/A   Clear
8:47 PM 73.4 °F - 59.0 °F 61% 30.20 in 10.0 mi Calm Calm - N/A   Clear
8:55 PM 73.4 °F - 57.9 °F 58% 30.20 in 10.0 mi Calm Calm - N/A   Clear
8:56 PM 73.4 °F - 58.1 °F 59% 30.20 in 10.0 mi Calm Calm - N/A   Clear
9:15 PM 72.9 °F - 58.1 °F 60% 30.21 in 10.0 mi Calm Calm - N/A   Clear
9:16 PM 72.9 °F - 58.1 °F 60% 30.21 in 10.0 mi Calm Calm - N/A   Clear
9:35 PM 71.6 °F - 58.1 °F 62% 30.22 in 10.0 mi Calm Calm - N/A   Clear
9:55 PM 72.0 °F - 58.1 °F 62% 30.22 in 10.0 mi Calm Calm - N/A   Clear
10:15 PM 72.1 °F - 58.1 °F 61% 30.22 in 10.0 mi Calm Calm - N/A   Clear
10:35 PM 70.7 °F - 58.1 °F 64% 30.22 in 10.0 mi Calm Calm - N/A   Clear
10:55 PM 69.8 °F - 58.1 °F 66% 30.22 in 10.0 mi Calm Calm - N/A   Clear
10:56 PM 70.0 °F - 58.1 °F 66% 30.22 in 10.0 mi Calm Calm - N/A   Clear
11:15 PM 69.8 °F - 58.3 °F 67% 30.22 in 10.0 mi Calm Calm - N/A   Clear
11:16 PM 69.8 °F - 58.3 °F 67% 30.22 in 10.0 mi Calm Calm - N/A   Clear
11:35 PM 69.1 °F - 58.3 °F 68% 30.21 in 10.0 mi Calm Calm - N/A   Clear
11:55 PM 69.4 °F - 58.1 °F 67% 30.21 in 10.0 mi Calm Calm - N/A   Clear